Regional Weather Roundup
Issued by NWS

Home | Current Version | Previous Version | Text Only | Print | Product List | Glossary On
Versions: 1 2 3 4 5 6 7 8 9 10 11 12 13 14 15 16 17 18 19 20 21 22 23 24 25 26 27 28 29 30 31 32 33 34 35 36 37 38 39 40 41 42 43 44 45 46 47 48 49 50
000
ASUS43 KDTX 200710
RWRMI
MICHIGAN HOURLY REGIONAL WEATHER ROUNDUP
NATIONAL WEATHER SERVICE DETROIT/PONTIAC MI
300 AM EDT SAT SEP 20 2014

NOTE: "FAIR" INDICATES FEW OR NO CLOUDS BELOW 12,000 FEET WITH NO
SIGNIFICANT WEATHER AND/OR OBSTRUCTION TO VISIBILITY.

MIZ047>049-052>055-059>063-066>070-074>076-081>083-200800-
SOUTHEAST LOWER MICHIGAN

CITY           SKY/WX    TMP DP  RH WIND       PRES   REMARKS
ADRIAN         CLEAR     51  47  86 SW3       30.02F
ALMA           CLEAR     54  48  81 S6        29.94F
ANN ARBOR      CLEAR     50  47  89 S6        30.00F FOG
BAD AXE        PTCLDY    55  53  94 S10       29.95F
CARO           MOCLDY    57  51  80 S9        29.95F
DETROIT CITY   PTCLDY    58  51  78 S6        30.01F
DETROIT        PTCLDY    54  50  86 S6        30.02F
FLINT          PTCLDY    60  48  64 S8        29.97F
GROSSE ILE     PTCLDY    63  54  72 S13       30.00F
HILLSDALE      CLEAR     54  49  81 S6        30.00F
HOWELL         PTCLDY    55  49  80 S8        29.97F

CITY           SKY/WX    TMP DP  RH WIND       PRES   REMARKS
JACKSON        PTCLDY    54  47  77 S7        29.98F
LAMBERTVILLE   PTCLDY    54  46  76 S5        30.02F
LANSING        MOCLDY    56  47  71 S8        29.97S
LAPEER         FAIR      56  50  80 SW7       29.98S
MASON          PTCLDY    55  48  79 CALM      29.97F
MONROE         PTCLDY    54  48  82 S6        30.00F
MT. CLEMENS    PTCLDY    56  56 100 S9        29.98F
PONTIAC        CLEAR     57  48  72 S7        29.98F
PORT HOPE        N/A     57  51  80 VRB6      29.92F
PORT HURON     PTCLDY    50  50 100 SW3       29.99F FOG
TRI CITIES     CLEAR     56  50  80 S10       29.94F
TROY           CLEAR     55  51  88 SW6       30.02F FOG
SAGINAW HB     MOCLDY    55  50  82 S8        29.94F
$$
MIZ043>046-050>051-056>058-064>065-071>073-077>080-200800-
SOUTHWEST LOWER MICHIGAN

CITY           SKY/WX    TMP DP  RH WIND       PRES   REMARKS
BATTLE CREEK   CLEAR     55  47  74 S9        29.98S
BENTON HARBOR  CLEAR     59  49  69 S8        29.95S
BIG RAPIDS     PTCLDY    59  50  73 S10G17    29.90F
COLDWATER      CLEAR     60  48  65 S6        29.98F
FREMONT        FAIR      56  46  69 S3        29.92R
HOLLAND        PTCLDY    60  49  66 S9        29.93F
GRAND RAPIDS   CLEAR     59  49  69 S8        29.94F
IONIA          FAIR      57  48  72 S8        29.93F
KALAMAZOO      CLEAR     56  48  74 S9        29.97S
LUDINGTON      CLOUDY    67  55  65 SW20G29   29.85F
MARSHALL       CLEAR     55  46  73 S5        29.97F
MOUNT PLEASANT PTCLDY    54  49  82 S3        29.92F
MUSKEGON       PTCLDY    65  54  67 S15       29.92R
SOUTH HAVEN    CLEAR     60  50  70 S8        29.95S
$$
MIZ016>042-200800-
NORTHERN LOWER MICHIGAN

CITY           SKY/WX    TMP DP  RH WIND       PRES   REMARKS
ALPENA         CLOUDY    59  48  67 S12       29.83F
BEAVER ISLAND  CLOUDY    63  56  77 SW15G23   29.74F
BELLAIRE       MOCLDY    66  47  51 S9        29.80F
CADILLAC       MOCLDY    60  49  66 S15G22    29.85F
CHARLEVOIX     CLOUDY    64  51  61 S13G24    29.79F
FRANKFORT      CLOUDY    68  50  52 S18G30    29.80F
GAYLORD        MOCLDY    60  47  61 S14       29.83F
GRAYLING       CLOUDY    60  48  62 S9        29.87F
HARBOR SPRINGS LGT RAIN  63  52  66 SW5G21    29.78F
HOUGHTON LAKE  CLOUDY    57  49  74 S8        29.89F
MANISTEE       CLOUDY    68  48  49 S17G25    29.83F
OSCODA         CLOUDY    57  51  79 SW12      29.89F
PELLSTON       CLOUDY    65  48  54 SW15G25   29.77F
ROGERS CITY    MOCLDY    61  52  71 S13G18    29.80F
TRAVERSE CITY  MOCLDY    66  47  50 S9G21     29.78F
$$
MIZ007>008-015-200800-
EASTERN UPPER MICHIGAN

CITY           SKY/WX    TMP DP  RH WIND       PRES   REMARKS
KINROSS        CLOUDY    57  55  94 S8        29.77F
MACKINAC ISLAN HVY RAIN  59  53  80 SW14G28   29.75F
NEWBERRY       CLOUDY    61  53  74 SW18G26   29.72F
S. S. MARIE    CLOUDY    56  54  93 SE7       29.75F
MUNISING         N/A     63  52  67 S13G20    29.67S
$$
MIZ004>006-011>014-085-200800-
CENTRAL UPPER MICHIGAN

CITY           SKY/WX    TMP DP  RH WIND       PRES   REMARKS
MANISTIQUE     CLOUDY    60  55  82 SW9G21    29.73R
ESCANABA       CLOUDY    61  54  77 S13       29.72S
MENOMINEE      CLOUDY    63  54  72 SW7       29.73R
SAWYER-GWINN   PTCLDY    59  52  78 S9        29.69S
$$
MIZ001>003-009>011-084-200800-
WESTERN UPPER MICHIGAN

CITY           SKY/WX    TMP DP  RH WIND       PRES   REMARKS
IRON MOUNTAIN  PTCLDY    62  54  74 S8        29.69S
HOUGHTON       CLOUDY    62  57  83 CALM      29.62R
COPPER HARBOR    N/A     63  58  83 CALM      29.60S
IRONWOOD       PTCLDY    66  63  88 SW10      29.61F
$$

ABBREVIATIONS USED IN REMARKS
   TC - TEMPERATURE IN CELSIUS
  WCI - WIND CHILL INDEX
   HX - HEAT INDEX
  VSB - VISIBILITY




USA.gov is the U.S. government's official web portal to all federal, state and local government web resources and services.